[[{"header":{"parameterUnit":"m.s-1","parameterCategory":2,"la1":30.2992,"la2":30.254,"lo1":-89.0895,"lo2":-89.0443,"dy":0.0025,"dx":0.0025,"nx":19,"ny":19,"refTime":"2026-05-07T09:00:00:Z","depth":"0","parameterNumber":2,"parameterNumberName":"U-component_of_CURRENTS"},"data":[0,0,0,0.1538,0.1538,0.1569,0.1569,0.1656,0.1657,0,0,0,0,0,0,0,0,0,0,0,0.1529,0.1529,0.1538,0.1538,0.1569,0.1569,0.1656,0.1657,0,0,0,0,0,0,0,0,0,0,0,0.1529,0.1529,0.1529,0.1538,0.1569,0.1569,0.1656,0.1624,0,0,0,0,0,0,0,0,0,0,0.1589,0.1568,0.1529,0.1529,0.1538,0.1569,0.1569,0.1622,0.1626,0.1652,0,0.1649,0,0.165,0.1663,0.1663,0,0,0,0.1551,0.1564,0.1572,0.1529,0.1538,0.1569,0.1558,0.1624,0.1628,0.1657,0.165,0.1653,0.1651,0.1663,0.1664,0.1752,0.1753,0,0,0.1549,0.154,0.1569,0.1575,0.1537,0.1557,0.1559,0.1626,0.1628,0.165,0.1654,0.1653,0.1664,0.1664,0.1752,0.1753,0,0,0,0.1535,0.1538,0.1544,0.1571,0.157,0.1558,0.156,0.1626,0.1627,0.1655,0.1654,0.1664,0.1665,0.1752,0.1752,0.1734,0,0,0,0.1535,0.153,0.1543,0.1539,0.1568,0.1591,0.1558,0.1622,0.163,0.1653,0.1664,0.1666,0.1751,0.1752,0.1733,0.175,0,0,0,0.153,0.1529,0.153,0.1538,0.1545,0.1589,0.1595,0.1624,0.1628,0.1663,0.1666,0.1751,0.1752,0.1733,0.1749,0.1792,0,0,0,0.1525,0.1523,0.1529,0.1527,0.1545,0.157,0.1595,0.1617,0.1643,0.1665,0.1751,0.1752,0.1733,0.1749,0.1791,0.1765,0.1768,0,0,0.152,0.1522,0.1521,0.1528,0.1538,0.1568,0.16,0.1639,0.1669,0.1734,0.1736,0.1733,0.1749,0.1792,0.181,0.1812,0,0,0,0.1519,0.1515,0.1521,0.1526,0.1549,0.1588,0.1622,0.1651,0.1706,0.1686,0.1755,0.1766,0.1793,0.1776,0.1778,0.175,0.1756,0.1756,0.1756,0.1498,0.1508,0.1511,0.1529,0.1554,0.1606,0.1648,0.1701,0.1712,0.1736,0.1765,0.1808,0.1788,0.1789,0.176,0.1769,0.1769,0.1769,0.1769,0.1483,0.1486,0.1507,0.1516,0.1562,0.1602,0.1687,0.1708,0.179,0.178,0.1806,0.1775,0.179,0.1759,0.1768,0.1769,0.1769,0.1769,0.1769,0.1467,0.1474,0.1476,0.15,0.1547,0.1609,0.169,0.1742,0.1795,0.1822,0.1831,0.1831,0.1794,0.1836,0.1837,0.1837,0.1837,0.1837,0.1837,0.1456,0.1461,0.1464,0.1491,0.1521,0.1587,0.17,0.1766,0.183,0.184,0.184,0.1809,0.183,0.1816,0.1841,0.1841,0.184,0.184,0.1839,0.1448,0.1447,0.145,0.1467,0.1533,0.1583,0.1693,0.1801,0.187,0.1892,0.1826,0.1856,0.1873,0.1871,0.186,0.1895,0.1895,0.1895,0.1895,0.1442,0.1442,0.1443,0.1467,0.1526,0.1585,0.1671,0.1746,0.1807,0.1804,0.1834,0.1785,0.1784,0.1793,0.1793,0.1779,0.1794,0.1793,0.1793,0.1439,0.1437,0.1437,0.1452,0.1517,0.1584,0.1615,0.1609,0.1692,0.1787,0.1802,0.1807,0.1732,0.1733,0.1743,0.1745,0.1722,0,0]},{"header":{"parameterUnit":"m.s-1","parameterCategory":2,"la1":30.2992,"la2":30.254,"lo1":-89.0895,"lo2":-89.0443,"dy":0.0025,"dx":0.0025,"nx":19,"ny":19,"refTime":"2026-05-07T09:00:00:Z","depth":"0","parameterNumber":3,"parameterNumberName":"V-component_of_CURRENTS"},"data":[0,0,0,0.0389,0.039,0.0432,0.0432,0.047,0.047,0,0,0,0,0,0,0,0,0,0,0,0.0372,0.0373,0.0389,0.039,0.0432,0.0432,0.047,0.047,0,0,0,0,0,0,0,0,0,0,0,0.0372,0.0373,0.0373,0.039,0.0432,0.0432,0.047,0.0441,0,0,0,0,0,0,0,0,0,0,0.0402,0.0387,0.0373,0.0373,0.039,0.0432,0.0432,0.044,0.0443,0.0446,0,0.0454,0,0.0464,0.0472,0.0472,0,0,0,0.0388,0.0385,0.04,0.0373,0.0391,0.0432,0.0413,0.0442,0.0445,0.045,0.0455,0.0457,0.0465,0.0472,0.0473,0.0534,0.0535,0,0,0.0386,0.0377,0.0398,0.0402,0.0404,0.0411,0.0414,0.0444,0.0446,0.0455,0.0458,0.0466,0.0473,0.0473,0.0534,0.0534,0,0,0,0.038,0.0375,0.0389,0.04,0.041,0.0413,0.0416,0.0444,0.045,0.0458,0.0466,0.0473,0.0473,0.0533,0.0534,0.0562,0,0,0,0.0379,0.0372,0.0388,0.0383,0.041,0.043,0.0415,0.0448,0.0452,0.0466,0.0473,0.0474,0.0533,0.0534,0.056,0.0588,0,0,0,0.037,0.0371,0.0377,0.0382,0.0402,0.043,0.0437,0.0449,0.0457,0.0472,0.0474,0.0532,0.0533,0.0559,0.0585,0.0635,0,0,0,0.0357,0.0373,0.0377,0.0401,0.0401,0.0441,0.0437,0.0463,0.0478,0.0473,0.0533,0.0534,0.0558,0.0583,0.0633,0.0711,0.0728,0,0,0.0371,0.0374,0.039,0.0395,0.0434,0.0435,0.0479,0.0493,0.0495,0.052,0.0522,0.0561,0.0584,0.0635,0.0768,0.0784,0,0,0,0.0391,0.0403,0.0416,0.0439,0.0464,0.0497,0.0507,0.0519,0.055,0.0509,0.0573,0.0588,0.0619,0.0661,0.0673,0.0724,0.0538,0.0538,0.0538,0.0389,0.0413,0.0445,0.0479,0.0505,0.0539,0.057,0.0591,0.0577,0.0599,0.0619,0.0691,0.0736,0.0746,0.0797,0.0621,0.0621,0.0621,0.0622,0.0415,0.0438,0.0471,0.0511,0.0548,0.0586,0.0637,0.0642,0.0697,0.0664,0.0692,0.0699,0.0762,0.0811,0.0624,0.0623,0.0623,0.0623,0.0623,0.0414,0.0431,0.0459,0.0521,0.058,0.0626,0.0722,0.0731,0.0738,0.0768,0.0826,0.0827,0.0864,0.0783,0.0784,0.0784,0.0784,0.0785,0.0785,0.0399,0.0431,0.0476,0.054,0.0594,0.0679,0.0778,0.0843,0.0895,0.0884,0.0885,0.091,0.0741,0.0728,0.079,0.0789,0.0789,0.0788,0.0788,0.0406,0.042,0.049,0.0545,0.0684,0.0842,0.0911,0.1071,0.1096,0.1136,0.109,0.0952,0.0958,0.0948,0.0941,0.1055,0.1055,0.1055,0.1055,0.0404,0.0417,0.0521,0.0624,0.0765,0.0921,0.1206,0.1327,0.1318,0.129,0.1227,0.1204,0.1191,0.1208,0.1192,0.1189,0.1363,0.1363,0.1364,0.0415,0.0448,0.0528,0.0639,0.0811,0.1053,0.1376,0.1595,0.1498,0.1377,0.1286,0.1273,0.1234,0.1209,0.1226,0.12,0.1189,0,0]}],[{"header":{"parameterUnit":"m.s-1","parameterCategory":2,"la1":30.2992,"la2":30.254,"lo1":-89.0895,"lo2":-89.0443,"dy":0.0025,"dx":0.0025,"nx":19,"ny":19,"refTime":"2026-05-07T09:00:00:Z","depth":"2","parameterNumber":2,"parameterNumberName":"U-component_of_CURRENTS"},"data":[0,0,0,0.1393,0.1393,0.1434,0.1434,0.152,0.1521,0,0,0,0,0,0,0,0,0,0,0,0.1381,0.1381,0.1393,0.1394,0.1434,0.1434,0.152,0.1521,0,0,0,0,0,0,0,0,0,0,0,0.1381,0.1381,0.1381,0.1394,0.1433,0.1434,0.152,0.1483,0,0,0,0,0,0,0,0,0,0,0.1441,0.1423,0.1381,0.1381,0.1394,0.1433,0.1434,0.1481,0.1486,0.1509,0,0.1509,0,0.1513,0.1527,0.1527,0,0,0,0.1403,0.1419,0.1426,0.1381,0.1394,0.1433,0.1418,0.1483,0.1488,0.1515,0.151,0.1513,0.1515,0.1527,0.1528,0.1614,0.1614,0,0,0.1401,0.1395,0.1422,0.1429,0.1398,0.1417,0.1419,0.1486,0.1492,0.1511,0.1515,0.1516,0.1528,0.1528,0.1614,0.1614,0,0,0,0.1388,0.1393,0.1398,0.1426,0.1428,0.1418,0.1421,0.1489,0.1489,0.1516,0.1517,0.1528,0.1529,0.1613,0.1614,0.1599,0,0,0,0.1387,0.1385,0.1397,0.1395,0.1426,0.1454,0.1422,0.1485,0.1492,0.1517,0.1528,0.153,0.1613,0.1614,0.1599,0.1616,0,0,0,0.138,0.1384,0.1386,0.1394,0.1407,0.1453,0.1458,0.1486,0.1492,0.1527,0.153,0.1613,0.1614,0.1599,0.1615,0.1654,0,0,0,0.1377,0.1377,0.1386,0.1386,0.1406,0.1432,0.1457,0.1483,0.151,0.1529,0.1613,0.1614,0.1599,0.1615,0.1653,0.161,0.1612,0,0,0.1375,0.1377,0.1376,0.1384,0.1395,0.1428,0.146,0.1502,0.1533,0.1595,0.1596,0.1599,0.1615,0.1654,0.1653,0.1653,0,0,0,0.1373,0.137,0.1376,0.1382,0.1406,0.1446,0.1483,0.1512,0.157,0.1551,0.1619,0.163,0.1654,0.1626,0.1627,0.1617,0.1617,0.1617,0.1617,0.1357,0.1364,0.1367,0.1383,0.1409,0.1462,0.1504,0.1558,0.1573,0.16,0.1631,0.1672,0.1641,0.1641,0.1635,0.1635,0.1634,0.1634,0.1634,0.1343,0.1345,0.1364,0.1373,0.1419,0.146,0.1542,0.1567,0.165,0.1644,0.1667,0.1629,0.1641,0.1634,0.1634,0.1634,0.1634,0.1634,0.1634,0.1329,0.1336,0.1339,0.1363,0.1411,0.1472,0.1552,0.1606,0.1659,0.1687,0.1683,0.1683,0.1675,0.1702,0.1703,0.1703,0.1703,0.1703,0.1703,0.1322,0.1326,0.1331,0.1359,0.139,0.1456,0.1569,0.1631,0.1686,0.1693,0.1693,0.1696,0.1694,0.1681,0.1707,0.1706,0.1706,0.1705,0.1705,0.1316,0.1315,0.1321,0.134,0.1404,0.1446,0.1554,0.1646,0.1713,0.1724,0.17,0.1699,0.1711,0.1709,0.1698,0.1727,0.1727,0.1727,0.1727,0.1312,0.1311,0.1317,0.134,0.1394,0.1444,0.1488,0.1495,0.1565,0.1549,0.1557,0.1498,0.1502,0.1499,0.1502,0.1486,0.146,0.1459,0.1458,0.1309,0.131,0.1312,0.1326,0.1384,0.1434,0.1395,0.1252,0.127,0.1443,0.1464,0.1718,0.165,0.1649,0.166,0.166,0.164,0,0]},{"header":{"parameterUnit":"m.s-1","parameterCategory":2,"la1":30.2992,"la2":30.254,"lo1":-89.0895,"lo2":-89.0443,"dy":0.0025,"dx":0.0025,"nx":19,"ny":19,"refTime":"2026-05-07T09:00:00:Z","depth":"2","parameterNumber":3,"parameterNumberName":"V-component_of_CURRENTS"},"data":[0,0,0,0.0322,0.0323,0.0368,0.0368,0.0406,0.0406,0,0,0,0,0,0,0,0,0,0,0,0.0305,0.0305,0.0322,0.0323,0.0368,0.0368,0.0406,0.0406,0,0,0,0,0,0,0,0,0,0,0,0.0305,0.0305,0.0306,0.0323,0.0368,0.0368,0.0406,0.0376,0,0,0,0,0,0,0,0,0,0,0.0335,0.0321,0.0305,0.0306,0.0324,0.0368,0.0368,0.0375,0.0378,0.038,0,0.0389,0,0.04,0.0408,0.0408,0,0,0,0.0321,0.0318,0.0333,0.0306,0.0324,0.0368,0.0347,0.0377,0.038,0.0384,0.039,0.0392,0.0401,0.0408,0.0409,0.0471,0.0471,0,0,0.0319,0.031,0.0331,0.0335,0.0339,0.0346,0.0349,0.0379,0.0382,0.039,0.0393,0.0401,0.0409,0.0409,0.0471,0.0471,0,0,0,0.0313,0.0308,0.0323,0.0334,0.0344,0.0347,0.0351,0.038,0.0386,0.0393,0.0402,0.0409,0.0409,0.047,0.0471,0.0501,0,0,0,0.0311,0.0305,0.0322,0.0317,0.0344,0.0365,0.0351,0.0384,0.0388,0.0402,0.0409,0.041,0.047,0.047,0.0499,0.0526,0,0,0,0.0303,0.0304,0.0311,0.0316,0.0337,0.0365,0.0373,0.0385,0.0393,0.0408,0.041,0.0469,0.047,0.0497,0.0523,0.0572,0,0,0,0.029,0.0307,0.0311,0.0335,0.0337,0.0377,0.0373,0.04,0.0415,0.0409,0.047,0.0471,0.0497,0.0521,0.0569,0.0633,0.065,0,0,0.0305,0.0308,0.0324,0.033,0.0369,0.037,0.0415,0.043,0.0432,0.0457,0.0458,0.05,0.0523,0.0571,0.0693,0.0707,0,0,0,0.0325,0.0337,0.035,0.0375,0.0399,0.0434,0.0445,0.0457,0.0489,0.0446,0.0512,0.0527,0.0556,0.059,0.0601,0.0476,0.0475,0.0475,0.0475,0.0325,0.0349,0.0382,0.0415,0.0442,0.0478,0.0509,0.053,0.0516,0.0539,0.056,0.0631,0.0667,0.0677,0.0562,0.0562,0.0563,0.0563,0.0563,0.0352,0.0376,0.041,0.0451,0.0488,0.0527,0.0577,0.0583,0.0638,0.0606,0.0632,0.0631,0.0691,0.0565,0.0565,0.0564,0.0564,0.0564,0.0564,0.0353,0.037,0.0399,0.0463,0.0523,0.0569,0.0664,0.0674,0.0681,0.071,0.0757,0.0757,0.0657,0.0724,0.0725,0.0725,0.0725,0.0726,0.0726,0.034,0.0372,0.0418,0.0483,0.0539,0.0624,0.0723,0.0785,0.0829,0.0815,0.0815,0.0686,0.0681,0.0667,0.0731,0.073,0.0729,0.0729,0.0729,0.0348,0.0362,0.0433,0.0489,0.0629,0.0783,0.085,0.0997,0.102,0.1053,0.088,0.0875,0.0878,0.0869,0.0861,0.0971,0.0971,0.0971,0.0971,0.0347,0.036,0.0465,0.0568,0.0709,0.086,0.1107,0.1159,0.111,0.1013,0.1011,0.0973,0.0963,0.0968,0.0956,0.0948,0.108,0.108,0.108,0.0358,0.0392,0.0472,0.0583,0.0755,0.0987,0.1242,0.1278,0.1106,0.1079,0.0973,0.0989,0.0925,0.0913,0.091,0.0895,0.0878,0,0]}],[{"header":{"parameterUnit":"m.s-1","parameterCategory":2,"la1":30.2992,"la2":30.254,"lo1":-89.0895,"lo2":-89.0443,"dy":0.0025,"dx":0.0025,"nx":19,"ny":19,"refTime":"2026-05-07T09:00:00:Z","depth":"4","parameterNumber":2,"parameterNumberName":"U-component_of_CURRENTS"},"data":[0,0,0,0.0514,0.0516,0.0592,0.0592,0.0675,0.0676,0,0,0,0,0,0,0,0,0,0,0,0.0488,0.0489,0.0514,0.0516,0.0592,0.0592,0.0675,0.0676,0,0,0,0,0,0,0,0,0,0,0,0.0488,0.0489,0.049,0.0517,0.0592,0.0592,0.0675,0.0617,0,0,0,0,0,0,0,0,0,0,0.0543,0.0532,0.0489,0.049,0.0517,0.0592,0.0592,0.0614,0.062,0.0643,0,0.0673,0,0.0686,0.0683,0.0684,0,0,0,0.0497,0.0527,0.0548,0.0491,0.0518,0.0592,0.0552,0.0617,0.0625,0.0652,0.0675,0.0678,0.0688,0.0684,0.0685,0.0754,0.0754,0,0,0.0493,0.0497,0.0543,0.0553,0.0563,0.055,0.0555,0.0622,0.064,0.0675,0.068,0.0689,0.0685,0.0686,0.0754,0.0754,0,0,0,0.0494,0.0495,0.0514,0.055,0.057,0.0553,0.0558,0.0636,0.0644,0.0681,0.069,0.0685,0.0687,0.0754,0.0754,0.078,0,0,0,0.049,0.0497,0.0512,0.0515,0.057,0.0608,0.0571,0.0639,0.0647,0.069,0.0685,0.0688,0.0754,0.0754,0.0779,0.0787,0,0,0,0.048,0.0495,0.0511,0.0515,0.0556,0.0607,0.0617,0.064,0.0654,0.0684,0.0688,0.0754,0.0754,0.0779,0.0786,0.082,0,0,0,0.047,0.0477,0.0512,0.0532,0.0556,0.0582,0.0617,0.0656,0.0683,0.0686,0.0754,0.0754,0.0778,0.0786,0.0819,0.071,0,0,0,0.0457,0.0476,0.0485,0.0517,0.0539,0.0569,0.0598,0.0661,0.0686,0.0729,0.073,0.0779,0.0786,0.082,0.0707,0,0,0,0,0.0466,0.0479,0.0491,0.0525,0.0552,0.0585,0.0637,0.067,0.0729,0.0707,0.0771,0.0774,0.0795,0.0727,0.0754,0.0754,0.0754,0.0754,0.0754,0.0468,0.0479,0.0489,0.0512,0.0541,0.0606,0.0642,0.0695,0.0728,0.0761,0.0789,0.0822,0.0749,0.0783,0.0783,0.0783,0.0783,0.0783,0.0783,0.0452,0.0453,0.0487,0.0501,0.0548,0.0591,0.0666,0.0713,0.0797,0.0798,0.0818,0.075,0.0786,0.0785,0.0785,0.0785,0.0784,0.0784,0.0784,0.0452,0.0441,0.0469,0.0492,0.0547,0.0607,0.0665,0.0746,0.0814,0.085,0.08,0.0844,0.085,0.0878,0.0878,0.0879,0.0879,0.0879,0.0879,0.0429,0.044,0.0454,0.0487,0.0512,0.0579,0.0688,0.0732,0.0815,0.0814,0.0873,0.0854,0.0851,0.0855,0.0882,0.0881,0.0881,0.0881,0.0881,0.0392,0.0424,0.0416,0.0433,0.0469,0.0487,0.0617,0.0699,0.0752,0.0773,0.0793,0.0796,0.0781,0.078,0.0781,0.0787,0.0786,0.0785,0,0.038,0.0389,0.0376,0.0357,0.0351,0.0412,0.0463,0.0548,0.064,0.0619,0.0708,0.0723,0.0727,0.0701,0.0698,0.0693,0,0,0,0.0356,0.0348,0.032,0.0299,0.0264,0.0346,0.0464,0.0476,0.0661,0.0674,0.0752,0.0761,0.0787,0.089,0.0876,0.0872,0.0879,0,0]},{"header":{"parameterUnit":"m.s-1","parameterCategory":2,"la1":30.2992,"la2":30.254,"lo1":-89.0895,"lo2":-89.0443,"dy":0.0025,"dx":0.0025,"nx":19,"ny":19,"refTime":"2026-05-07T09:00:00:Z","depth":"4","parameterNumber":3,"parameterNumberName":"V-component_of_CURRENTS"},"data":[0,0,0,0.0164,0.0165,0.021,0.021,0.0258,0.0258,0,0,0,0,0,0,0,0,0,0,0,0.0149,0.0149,0.0164,0.0165,0.021,0.021,0.0258,0.0258,0,0,0,0,0,0,0,0,0,0,0,0.0149,0.0149,0.0149,0.0165,0.021,0.021,0.0258,0.0226,0,0,0,0,0,0,0,0,0,0,0.0183,0.0171,0.0149,0.0149,0.0165,0.021,0.021,0.0225,0.0228,0.0234,0,0.0243,0,0.0252,0.0261,0.0261,0,0,0,0.0165,0.0168,0.018,0.0149,0.0165,0.021,0.019,0.0227,0.023,0.0239,0.0244,0.0246,0.0252,0.0261,0.0262,0.0332,0.0333,0,0,0.0163,0.0157,0.0178,0.0183,0.018,0.0188,0.0191,0.0229,0.0234,0.0244,0.0247,0.0253,0.0262,0.0262,0.0332,0.0333,0,0,0,0.0155,0.0155,0.0167,0.0181,0.019,0.0189,0.0193,0.0232,0.0236,0.0248,0.0254,0.0262,0.0262,0.0332,0.0332,0.0368,0,0,0,0.0154,0.0151,0.0166,0.0163,0.0189,0.0213,0.0195,0.0234,0.0238,0.0253,0.0262,0.0263,0.0331,0.0332,0.0366,0.0387,0,0,0,0.0146,0.015,0.0156,0.0162,0.0181,0.0213,0.0219,0.0235,0.0242,0.0261,0.0263,0.0331,0.0332,0.0364,0.0384,0.0405,0,0,0,0.0137,0.0152,0.0156,0.0181,0.0181,0.0225,0.0219,0.0253,0.0272,0.0262,0.0331,0.0332,0.0364,0.0382,0.0403,0.0378,0,0,0,0.015,0.0153,0.017,0.0175,0.0221,0.0219,0.0271,0.0291,0.029,0.0317,0.0318,0.0367,0.0383,0.0404,0.0442,0,0,0,0,0.0171,0.0186,0.02,0.023,0.0256,0.0291,0.0308,0.032,0.0353,0.0306,0.0379,0.0388,0.04,0.0381,0.0337,0.0337,0.0337,0.0337,0.0337,0.0179,0.0204,0.0241,0.0277,0.0308,0.0347,0.0375,0.0397,0.0387,0.0411,0.0426,0.0479,0.0462,0.0433,0.0433,0.0433,0.0433,0.0433,0.0433,0.0211,0.0235,0.0276,0.0321,0.036,0.0406,0.045,0.0455,0.0496,0.0476,0.0485,0.0431,0.0437,0.0436,0.0436,0.0435,0.0435,0.0435,0.0435,0.0216,0.0231,0.0265,0.0335,0.0403,0.0449,0.0521,0.0539,0.0534,0.0553,0.0526,0.0508,0.0494,0.0555,0.0555,0.0555,0.0555,0.0556,0.0556,0.0199,0.0237,0.0282,0.0355,0.0414,0.0494,0.0568,0.0594,0.0592,0.0573,0.0565,0.052,0.0516,0.0502,0.0559,0.0558,0.0558,0.0558,0.0557,0.0202,0.0218,0.0288,0.0345,0.0483,0.0542,0.061,0.0633,0.0653,0.0631,0.058,0.0578,0.0562,0.0557,0.0543,0.0615,0.0615,0.0615,0,0.0197,0.0209,0.0309,0.0407,0.0514,0.0584,0.063,0.0653,0.0623,0.0609,0.0635,0.0577,0.0575,0.0556,0.0551,0.0535,0,0,0,0.0203,0.0235,0.0305,0.0409,0.0536,0.0607,0.0647,0.0638,0.0631,0.063,0.0612,0.0613,0.0592,0.0568,0.0539,0.0534,0.0509,0,0]}]]